Regional Weather Roundup
Issued by NWS Midland/Odessa, TX

Skip options and go directly to product.
Home | Oldest Version | Previous Version | Current Version | All | Text Only | Save Text | Print | Product List | Glossary On

Skip product version selection by date and time.   
034
ASUS44 KMAF 010710
RWRMAF
MIDLAND AREA WEATHER ROUNDUP
NATIONAL WEATHER SERVICE MIDLAND TX
200 AM CDT FRI AUG 01 2014

...IN SOUTHWEST TEXAS AND SOUTHEAST NEW MEXICO...

CITY           SKY/WX    TMP DP  RH WIND       PRES   REMARKS
ALPINE         MOCLDY    67  59  74 NW3       30.25F
ANDREWS        FAIR      71  58  63 E10       30.16S
ARTESIA        CLOUDY    72  66  83 E3        30.16S
BIG SPRING     PTCLDY    74  62  66 NE9       30.15F
CARLSBAD       CLOUDY    74  66  76 N6        30.13F
DRYDEN           N/A     85  62  46 NE14      30.05R
FORT STOCKTON  CLOUDY    76  57  51 E8        30.12S
GUAD PASS      CLOUDY    67  58  72 NE12        N/A
HOBBS          MOCLDY    70  55  60 E9        30.17F
MARFA          MOCLDY    70  57  64 NE8       30.23F
MIDLAND AIRPK  MOCLDY    73  61  65 E12       30.13F
MIDLAND INTL   MOCLDY    74  61  63 E15       30.12F
ODESSA         MOCLDY    74  60  61 E14       30.14S
PECOS          CLOUDY    77  57  50 E5        30.10S
PRESIDIO       FAIR      82  61  48 N13       30.05S
SEMINOLE       PTCLDY    70  58  64 E8        30.18F HAZE
SNYDER         PTCLDY    69  62  78 NE5       30.15F
WINK           CLOUDY    77  59  53 E5        30.09F
$$
...OTHER STATIONS IN TEXAS...

CITY           SKY/WX    TMP DP  RH WIND       PRES   REMARKS
ABILENE        PTCLDY    71  63  75 CALM      30.11S
AMARILLO       MOCLDY    63  56  78 SE5       30.20F
AUSTIN         MOCLDY    78  64  61 N9        30.00S
BROWNSVILLE    PTCLDY    80  76  87 S9        29.94F
CORPUS CHRISTI MOCLDY    80  76  87 S14       29.93S
DALLAS FTW     CLOUDY    71  66  84 N10       30.02F
DEL RIO        CLOUDY    82  68  62 NE9       29.95R
EL PASO        LGT RAIN  71  64  78 S14       30.15S
HOUSTON INT    LGT RAIN  75  73  93 S8        29.96F
LUBBOCK        CLOUDY    66  57  72 E7        30.19S
SAN ANGELO     CLEAR     72  63  73 NE8       30.09F
SAN ANTONIO    MOCLDY    82  68  62 NE8       30.00R
WACO           CLOUDY    73  65  75 N9        30.01S
WICHITA FALLS  NOT AVBL
$$
...OTHER LOCATIONS IN NEW MEXICO...

CITY           SKY/WX    TMP DP  RH WIND       PRES   REMARKS
ALAMAGORDO     HVY RAIN  66  64  94 N17G28    30.20F
ALBUQUERQUE    CLOUDY    68  53  58 NE10G17   30.28S
CANNON AFB     CLOUDY    65  54  66 E7        30.24F
CLOVIS         NOT AVBL
HOLLOMAN AFB   LGT RAIN  64  64 100 N15G24    30.20R
ROSWELL        CLOUDY    73  64  73 E3        30.17F
RUIDOSO        HVY RAIN  55  55 100 N12G20    30.40F
SANTA FE       MOCLDY    58  54  86 SE6       30.36R
TRUTH OR CONSE CLOUDY    64  60  87 N15       30.23F
TUCUMCARI      CLOUDY    71  55  56 CALM      30.22S
$$

USA.gov is the U.S. government's official web portal to all federal, state and local government web resources and services.